Location: Julian California
(33.0790°N, 116.6010°W)
Time: 08:41:52
(UTC-08:00)

CENTAUR R/B - Pass Details

Date: 19 May 2017
Orbit: 822 x 1366 km, 63.5° (Epoch: 19 November)

Event Time Altitude Azimuth Distance (km) Brightness Sun altitude
Rises 22:00:59 0° 332° (NNW) 4,167 7.1 -24.3°
Reaches altitude 10° 22:03:43 10° 336° (NNW) 3,259 6.2 -24.7°
Maximum altitude 22:11:44 64° 58° (ENE) 1,462 3.2 -25.8°
Enters shadow 22:14:17 46° 117° (ESE) 1,750 3.3 -26.1°
